This is the latest recevied weather packets stored in our database for station/object IT9KWW-13. If no packets are shown the sender has not sent any weather packets the latest 1 day(s).
| Time | Temp. | Humidity | Pressure | Rain* | Wind** | Luminosity | Snow |
|---|---|---|---|---|---|---|---|
| 1777996689 | 19.44° C | 76% | 1012.9 hPa | 0 mm | 4.92 m/s, 202° | - | - |
| 1777996557 | 19.44° C | 76% | 1012.9 hPa | 0 mm | 4.47 m/s, 225° | - | - |
| 1777996317 | 20° C | 76% | 1012.9 hPa | 0 mm | 4.47 m/s, 202° | - | - |
| 1777996186 | 20° C | 75% | 1012.9 hPa | 0 mm | 4.47 m/s, 248° | - | - |
| 1777996065 | 20° C | 75% | 1012.9 hPa | 0 mm | 5.36 m/s, 158° | - | - |
| 1777995945 | 20° C | 75% | 1012.9 hPa | 0 mm | 3.58 m/s, 202° | - | - |
| 1777995813 | 20° C | 76% | 1012.9 hPa | 0 mm | 3.58 m/s, 202° | - | - |
| 1777995693 | 20° C | 76% | 1012.9 hPa | 0 mm | 3.58 m/s, 202° | - | - |
| 1777995573 | 20° C | 76% | 1012.9 hPa | 0 mm | 3.13 m/s, 225° | - | - |
| 1777995441 | 20° C | 75% | 1012.9 hPa | 0 mm | 4.92 m/s, 202° | - | - |
| 1777995321 | 20° C | 74% | 1012.9 hPa | 0 mm | 4.92 m/s, 202° | - | - |
| 1777995201 | 20° C | 75% | 1012.9 hPa | 0 mm | 4.02 m/s, 202° | - | - |
| 1777995069 | 20° C | 75% | 1012.9 hPa | 0 mm | 3.13 m/s, 180° | - | - |
| 1777994949 | 20° C | 75% | 1012.9 hPa | 0 mm | 4.02 m/s, 158° | - | - |
| 1777994829 | 20.56° C | 74% | 1012.9 hPa | 0 mm | 3.58 m/s, 202° | - | - |
| 1777994697 | 20.56° C | 74% | 1012.9 hPa | 0 mm | 3.13 m/s, 158° | - | - |
| 1777994577 | 20.56° C | 74% | 1012.9 hPa | 0 mm | 3.58 m/s, 202° | - | - |
| 1777994457 | 20.56° C | 74% | 1012.9 hPa | 0 mm | 5.81 m/s, 180° | - | - |
| 1777994325 | 20.56° C | 73% | 1012.9 hPa | 0 mm | 4.47 m/s, 158° | - | - |
| 1777994205 | 20.56° C | 74% | 1012.9 hPa | 0 mm | 2.24 m/s, 158° | - | - |
| 1777994085 | 20.56° C | 72% | 1012.9 hPa | 0 mm | 4.02 m/s, 202° | - | - |
| 1777993953 | 20.56° C | 72% | 1012.9 hPa | 0 mm | 3.13 m/s, 180° | - | - |
| 1777993833 | 20.56° C | 73% | 1012.9 hPa | 0 mm | 4.02 m/s, 202° | - | - |
| 1777993713 | 20.56° C | 73% | 1012.9 hPa | 0 mm | 3.58 m/s, 202° | - | - |
| 1777993581 | 20.56° C | 73% | 1012.9 hPa | 0 mm | 3.58 m/s, 202° | - | - |
* Rain latest hour (hover to see other rain measurements)
** Current wind speed in m/s (hover to see current wind gust speed)